Weather in Mykhailivka

Ukraine / Zaporizhia Region     47°16′05″N   35°13′43″E
temp.,
°C
wind,
m/s
gust,
m/s
humid.,
%
clouds,
%
prec.,
mm/h
press.,
hPa
HPBL,
m
10 may, mon
mon1000:00+8nw47582 0.0 1025110
03:00+6nnw35701 0.0 102569
06:00+6nnw36740 0.0 1026114
09:00+12nnw58470 0.0 10251681
12:00+14nnw673966 0.0 10252349
15:00+15nw7836100 0.0 10232613
18:00+15nw684484 0.0 10212156
21:00+12nnw61148100 0.0 1020388
11 may, tue
tue1100:00+11nw81355100 0.0 1017701
03:00+9nw81377100 0.4 1016905
06:00+9nnw81381100 0.3 1014622
09:00+11n6980100 0.3 1014855
12:00+11n5890100 0.4 1014723
15:00+12nne5773100 0.5 1015894
18:00+11ene5772100 0.1 1015491
21:00+7nne33805 0.1 101538
12 may, wed
wed1200:00+7n228342 0.0 101413
03:00+7ene2385100 0.0 101484
06:00+7e248698 0.2 1014161
09:00+11ese336798 0.7 1014549
12:00+14sse345376 0.4 10131569
15:00+14ssw345592 0.8 10131215
18:00+15sse346164 0.1 1013805
21:00+10sse479119 0.1 1014118
13 may, thu
thu1300:00+9se369745 0.0 1014126
03:00+9ese35945 0.0 101471
06:00+9e358759 0.0 101494
09:00+17e576987 0.0 1013563
12:00+21ese6855100 0.0 10121300
15:00+23ese7848100 0.0 10111304
18:00+21se6105879 0.0 1011873
21:00+15ese412895 0.0 1010262
14 may, fri
fri1400:00+16se514941 0.0 1009333
03:00+15sse399715 0.0 1010207
06:00+15ssw2398100 0.0 1010102
09:00+19w216562 0.0 1011370
12:00+24sw3340100 0.0 1011922
15:00+26sw343659 0.0 10111594
18:00+26sw344685 0.0 1010283
21:00+19wsw2266100 0.0 101117